Content
SEND FEEDBACK

Daily
Averages
Monthly
Summary
United States of America

INARAJAN, GUAM


Home > North America > United States > Guam
Elevation: 85 meters     Latitude: 13 18N     Longitude: 144 44E

WEATHER
 
SELECT A DAY
Number of Records: 342,764;   Date Range: 1/1/95 - 9/22/14
 
SHARE

PRINT THIS DATA

[ ← Previous Day ]
WEATHER ALMANAC - 19 MARCH, 2013
[ Next Day → ]
[ °F ]   °C
Weather ElementAverageHighLow
Temperature25.8 °C28.6 °C (3:55 pm)24 °C (12:24 am)
Dewpoint24.1 °C25 °C (4:41 am)22.1 °C (8:55 pm)
Humidity90.6 %100 % (4:41 am)74 % (2:23 pm)
Barometer1011.5 hPa1013.2 hPa (10:03 am)1009.8 hPa (3:18 am)
Wind Speed20.1 km/h35.2 km/h (12:17 am)
Wind Gust48.1 km/h (12:17 am)
Weather ElementAverage
Visibility14.2 km
Wind DirectionENE (84.2 °)

Weather ElementTotal
Precipitation---
Cooling Degree Days8 (Base 18.3)
Growing Degree Days16.3 (Base 10)
Averaged from 137 records on 19 March, 2013
WEATHER CONDITIONS BREAKOUT
WIND DIRECTION BREAKOUT
WEATHER BY HOUR - 19 MARCH, 2013
[ °F ]   °C
Local TimeTemperatureDewpointHumidityBarometerVisibilityWind DirectionWind SpeedGust SpeedPrecipitationEventsConditions
12:11 AM25 °C24 °C94 %1011.2 hPa16.1 kmENE (70°)29.6 km/hMostly Cloudy
12:17 AM25 °C24 °C94 %1011.5 hPa4.8 kmEast (80°)35.2 km/h48.1 km/hRainHeavy Rain
12:19 AM25 °C23 °C89 %1011.5 hPa4 kmEast (80°)29.6 km/h48.1 km/hRainLight Rain
12:24 AM24 °C23 °C94 %1011.2 hPa3.2 kmENE (70°)29.6 km/h48.1 km/hRainLight Rain
12:25 AM24 °C23 °C94 %1011.2 hPa4 kmENE (70°)33.3 km/h48.1 km/hRainLight Rain
12:26 AM24 °C23 °C94 %1011.2 hPa4.8 kmENE (70°)35.2 km/h40.7 km/hRainLight Rain
12:33 AM24 °C23 °C94 %1011.2 hPa12.9 kmEast (80°)29.6 km/h40.7 km/hOvercast
12:41 AM24 °C23 °C94 %1011.2 hPa12.9 kmENE (60°)29.6 km/hLight Drizzle
12:47 AM24 °C23 °C94 %1011.2 hPa14.5 kmENE (60°)24.1 km/hLight Drizzle
12:50 AM24 °C23 °C94 %1010.8 hPa16.1 kmENE (60°)22.2 km/hOvercast
12:55 AM24.6 °C23.6 °C94 %1010.8 hPa16.1 kmENE (70°)24.1 km/hOvercast
1:01 AM25 °C24 °C94 %1010.8 hPa14.5 kmENE (70°)24.1 km/hRainLight Rain
1:11 AM25 °C24 °C94 %1010.8 hPa16.1 kmENE (70°)22.2 km/hMostly Cloudy
1:13 AM25 °C24 °C94 %1010.8 hPa16.1 kmENE (70°)18.5 km/hMostly Cloudy
1:28 AM25 °C24 °C94 %1010.5 hPa12.9 kmEast (90°)33.3 km/h42.6 km/hMostly Cloudy
1:29 AM25 °C24 °C94 %1010.5 hPa9.7 kmEast (100°)35.2 km/h42.6 km/hRainLight Rain
1:39 AM24 °C23 °C94 %1010.8 hPa9.7 kmEast (100°)27.8 km/h46.3 km/hRainLight Rain
1:40 AM24 °C23 °C94 %1010.8 hPa9.7 kmEast (100°)24.1 km/hRainLight Rain
1:44 AM24 °C23 °C94 %1010.8 hPa6.4 kmEast (90°)24.1 km/hRainLight Rain
1:45 AM24 °C23 °C94 %1010.8 hPa6.4 kmEast (90°)24.1 km/hRainLight Rain
1:47 AM24 °C23 °C94 %1010.8 hPa4.8 kmEast (90°)20.4 km/hRainRain
1:48 AM24 °C23 °C94 %1010.8 hPa4.8 kmEast (90°)22.2 km/hRainRain
1:55 AM24 °C23.2 °C95 %1010.5 hPa8 kmEast (90°)20.4 km/h0 mmRainLight Rain
2:06 AM24 °C23 °C94 %1010.5 hPa12.9 kmEast (80°)18.5 km/hRainLight Rain
2:19 AM25 °C24 °C94 %1010.2 hPa16.1 kmEast (80°)22.2 km/h35.2 km/hRainLight Rain
2:25 AM25 °C24 °C94 %1010.2 hPa16.1 kmEast (80°)20.4 km/h35.2 km/hMostly Cloudy
2:31 AM25 °C24 °C94 %1010.2 hPa16.1 kmEast (90°)22.2 km/hOvercast
2:55 AM25 °C24 °C94 %1010.2 hPa16.1 kmEast (100°)18.5 km/hMostly Cloudy
2:56 AM25 °C24 °C94 %1010.2 hPa16.1 kmEast (90°)20.4 km/hMostly Cloudy
2:57 AM25 °C24 °C94 %1010.2 hPa16.1 kmEast (90°)20.4 km/hMostly Cloudy
3:00 AM25 °C24 °C94 %1010.2 hPa16.1 kmEast (90°)25.9 km/h31.5 km/hMostly Cloudy
3:18 AM25 °C24 °C94 %1009.8 hPa16.1 kmEast (90°)24.1 km/hMostly Cloudy
3:55 AM25.3 °C24.4 °C95 %1009.8 hPa16.1 kmEast (90°)20.4 km/hMostly Cloudy
4:11 AM25 °C24 °C94 %1009.8 hPa16.1 kmEast (80°)27.8 km/hOvercast
4:41 AM25 °C25 °C100 %1009.8 hPa16.1 kmENE (70°)24.1 km/hMostly Cloudy
4:53 AM25 °C24 °C94 %1009.8 hPa16.1 kmEast (80°)25.9 km/hMostly Cloudy
4:55 AM25.4 °C24.4 °C94 %1009.8 hPa16.1 kmEast (80°)22.2 km/hOvercast
5:24 AM25 °C24 °C94 %1010.2 hPa16.1 kmEast (80°)16.7 km/hMostly Cloudy
5:43 AM25 °C24 °C94 %1010.5 hPa16.1 kmEast (90°)22.2 km/hScattered Clouds
5:50 AM25 °C24 °C94 %1010.5 hPa16.1 kmEast (90°)22.2 km/hMostly Cloudy
5:51 AM25 °C24 °C94 %1010.5 hPa16.1 kmEast (90°)20.4 km/hMostly Cloudy
5:55 AM25.5 °C24.4 °C94 %1010.5 hPa16.1 kmEast (100°)18.5 km/hMostly Cloudy
5:56 AM25 °C24 °C94 %1010.5 hPa16.1 kmEast (90°)20.4 km/hMostly Cloudy
6:03 AM25 °C24 °C94 %1010.5 hPa16.1 kmEast (90°)24.1 km/hMostly Cloudy
6:44 AM25 °C24 °C94 %1011.2 hPa16.1 kmEast (90°)22.2 km/hScattered Clouds
6:55 AM25.6 °C24.1 °C91 %1011.5 hPa16.1 kmEast (100°)18.5 km/hScattered Clouds
7:13 AM26 °C24 °C89 %1011.5 hPa16.1 kmEast (90°)20.4 km/hMostly Cloudy
7:20 AM26 °C24 °C89 %1011.9 hPa16.1 kmEast (90°)20.4 km/hMostly Cloudy
7:22 AM26 °C24 °C89 %1011.9 hPa16.1 kmEast (90°)18.5 km/hMostly Cloudy
7:26 AM26 °C24 °C89 %1011.9 hPa16.1 kmEast (90°)18.5 km/hScattered Clouds
7:47 AM26 °C24 °C89 %1011.9 hPa16.1 kmEast (100°)20.4 km/hMostly Cloudy
7:55 AM26.1 °C24 °C88 %1012.2 hPa16.1 kmEast (100°)22.2 km/hMostly Cloudy
8:15 AM26 °C24 °C89 %1012.2 hPa16.1 kmEast (100°)18.5 km/h35.2 km/hScattered Clouds
8:38 AM27 °C24 °C84 %1012.5 hPa16.1 kmEast (90°)22.2 km/hMostly Cloudy
8:55 AM26.7 °C24.5 °C88 %1012.9 hPa16.1 kmEast (100°)16.7 km/hMostly Cloudy
9:53 AM28 °C25 °C84 %1012.9 hPa16.1 kmEast (100°)20.4 km/hMostly Cloudy
9:55 AM27.8 °C24.8 °C84 %1012.9 hPa16.1 kmEast (100°)20.4 km/hMostly Cloudy
9:57 AM28 °C25 °C84 %1012.9 hPa16.1 kmEast (100°)22.2 km/hMostly Cloudy
10:00 AM28 °C25 °C84 %1012.9 hPa16.1 kmEast (100°)22.2 km/hMostly Cloudy
10:03 AM28 °C25 °C84 %1013.2 hPa16.1 kmEast (100°)22.2 km/hMostly Cloudy
10:05 AM28 °C25 °C84 %1013.2 hPa16.1 kmEast (90°)22.2 km/hMostly Cloudy
10:07 AM28 °C25 °C84 %1012.9 hPa16.1 kmEast (100°)24.1 km/hMostly Cloudy
10:13 AM28 °C24 °C79 %1012.9 hPa16.1 kmEast (100°)20.4 km/hScattered Clouds
10:55 AM27.9 °C24.6 °C82 %1012.5 hPa16.1 kmEast (90°)18.5 km/hScattered Clouds
11:09 AM28 °C25 °C84 %1012.5 hPa16.1 kmEast (100°)18.5 km/hMostly Cloudy
11:55 AM27.9 °C24.6 °C82 %1011.9 hPa16.1 kmEast (100°)20.4 km/hMostly Cloudy
11:57 AM28 °C25 °C84 %1011.9 hPa16.1 kmESE (110°)20.4 km/hMostly Cloudy
11:59 AM28 °C25 °C84 %1011.9 hPa16.1 kmESE (110°)22.2 km/hMostly Cloudy
12:04 PM28 °C25 °C84 %1011.9 hPa16.1 kmEast (100°)22.2 km/hMostly Cloudy
12:50 PM28 °C25 °C84 %1011.2 hPa16.1 kmESE (120°)20.4 km/hMostly Cloudy
12:55 PM28.4 °C24.9 °C81 %1011.2 hPa16.1 kmESE (120°)20.4 km/hMostly Cloudy
12:56 PM28 °C25 °C84 %1011.2 hPa16.1 kmESE (120°)18.5 km/hMostly Cloudy
1:04 PM28 °C25 °C84 %1011.2 hPa16.1 kmESE (120°)20.4 km/hMostly Cloudy
1:07 PM28 °C25 °C84 %1011.2 hPa16.1 kmESE (110°)18.5 km/hMostly Cloudy
1:14 PM28 °C25 °C84 %1011.2 hPa16.1 kmESE (120°)18.5 km/hMostly Cloudy
1:38 PM28 °C25 °C84 %1010.5 hPa16.1 kmESE (110°)20.4 km/hMostly Cloudy
1:42 PM28 °C25 °C84 %1010.5 hPa16.1 kmESE (110°)20.4 km/hMostly Cloudy
1:55 PM27.9 °C24.6 °C82 %1010.5 hPa16.1 kmEast (100°)18.5 km/hMostly Cloudy
2:23 PM28 °C23 °C74 %1010.2 hPa16.1 kmESE (110°)20.4 km/hMostly Cloudy
2:28 PM28 °C23 °C74 %1010.2 hPa16.1 kmESE (110°)20.4 km/hScattered Clouds
2:55 PM28 °C24.3 °C80 %1010.2 hPa16.1 kmEast (90°)18.5 km/hPartly Cloudy
3:55 PM28.6 °C24 °C76 %1009.8 hPa16.1 kmEast (100°)16.7 km/hScattered Clouds
4:39 PM27 °C24 °C84 %1010.2 hPa16.1 kmEast (90°)16.7 km/hMostly Cloudy
4:55 PM27 °C24.6 °C87 %1010.5 hPa16.1 kmENE (70°)13 km/hMostly Cloudy
4:57 PM27 °C25 °C89 %1010.5 hPa16.1 kmENE (60°)16.7 km/hMostly Cloudy
5:05 PM27 °C25 °C89 %1010.5 hPa16.1 kmENE (70°)16.7 km/hMostly Cloudy
5:08 PM27 °C25 °C89 %1010.5 hPa16.1 kmENE (70°)14.8 km/hScattered Clouds
5:47 PM26 °C25 °C94 %1011.2 hPa14.5 kmENE (60°)20.4 km/hMostly Cloudy
5:49 PM26 °C25 °C94 %1011.2 hPa8 kmENE (60°)18.5 km/hRainLight Rain
5:52 PM26 °C25 °C94 %1011.2 hPa4 kmENE (70°)16.7 km/h29.6 km/hRainLight Rain
5:53 PM26 °C24 °C89 %1011.2 hPa2.9 kmENE (60°)9.3 km/h29.6 km/hRainHeavy Rain
5:55 PM25.7 °C23.7 °C89 %1011.2 hPa2.4 kmENE (70°)7.4 km/h29.6 km/h0 mmRainHeavy Rain
6:00 PM26 °C24 °C89 %1011.5 hPa2.9 kmNE (40°)14.8 km/h29.6 km/hRainLight Rain
6:01 PM26 °C25 °C94 %1011.5 hPa4 kmNE (40°)14.8 km/h29.6 km/hRainLight Rain
6:02 PM26 °C25 °C94 %1011.5 hPa4.8 kmNE (40°)14.8 km/hRainLight Rain
6:08 PM26 °C25 °C94 %1011.5 hPa16.1 kmNE (50°)14.8 km/hOvercast
6:11 PM26 °C25 °C94 %1011.5 hPa16.1 kmNE (50°)14.8 km/hMostly Cloudy
6:18 PM26 °C25 °C94 %1011.9 hPa16.1 kmENE (70°)13 km/hMostly Cloudy
6:19 PM26 °C25 °C94 %1011.9 hPa16.1 kmENE (60°)14.8 km/hMostly Cloudy
6:20 PM26 °C25 °C94 %1011.9 hPa16.1 kmENE (60°)13 km/hMostly Cloudy
6:22 PM26 °C25 °C94 %1011.9 hPa16.1 kmENE (70°)13 km/hMostly Cloudy
6:28 PM26 °C25 °C94 %1011.9 hPa16.1 kmENE (70°)14.8 km/hMostly Cloudy
6:37 PM26 °C25 °C94 %1011.9 hPa16.1 kmEast (80°)14.8 km/hMostly Cloudy
6:38 PM26 °C25 °C94 %1011.9 hPa16.1 kmEast (80°)16.7 km/hMostly Cloudy
6:40 PM26 °C25 °C94 %1011.9 hPa16.1 kmEast (80°)14.8 km/hMostly Cloudy
6:51 PM26 °C25 °C94 %1011.9 hPa16.1 kmEast (80°)13 km/hMostly Cloudy
6:55 PM25.9 °C24.8 °C94 %1011.9 hPa16.1 kmEast (80°)7.4 km/h0 mmMostly Cloudy
6:59 PM26 °C25 °C94 %1011.9 hPa16.1 kmEast (90°)13 km/hOvercast
7:08 PM25 °C24 °C94 %1011.9 hPa16.1 kmENE (70°)20.4 km/hRainLight Rain
7:09 PM25 °C23 °C89 %1011.9 hPa14.5 kmENE (60°)20.4 km/hRainLight Rain
7:12 PM25 °C23 °C89 %1011.9 hPa11.3 kmEast (80°)13 km/hRainLight Rain
7:21 PM25 °C23 °C89 %1012.2 hPa14.5 kmENE (60°)14.8 km/hRainLight Rain
7:23 PM25 °C23 °C89 %1012.2 hPa14.5 kmENE (60°)14.8 km/hRainLight Rain
7:36 PM25 °C24 °C94 %1012.2 hPa16.1 kmENE (70°)16.7 km/hRainLight Rain
7:40 PM25 °C24 °C94 %1012.2 hPa16.1 kmEast (80°)16.7 km/hScattered Clouds
7:55 PM25.1 °C24 °C94 %1012.5 hPa16.1 kmENE (70°)24.1 km/h0 mmScattered Clouds
7:57 PM25 °C24 °C94 %1012.5 hPa16.1 kmEast (80°)25.9 km/hRainLight Rain
8:20 PM25 °C23 °C89 %1012.2 hPa16.1 kmEast (80°)14.8 km/hRainLight Rain
8:22 PM25 °C23 °C89 %1012.2 hPa16.1 kmEast (80°)16.7 km/hMostly Cloudy
8:24 PM25 °C24 °C94 %1012.2 hPa12.9 kmEast (80°)18.5 km/hLight Drizzle
8:34 PM25 °C23 °C89 %1012.5 hPa9.7 kmESE (110°)18.5 km/hRainLight Rain
8:37 PM24 °C23 °C94 %1012.5 hPa16.1 kmEast (100°)16.7 km/hScattered Clouds
8:55 PM24.3 °C22.1 °C87 %1012.9 hPa16.1 kmEast (100°)18.5 km/h0 mmPartly Cloudy
9:54 PM25 °C24 °C94 %1012.9 hPa16.1 kmEast (80°)14.8 km/hMostly Cloudy
9:55 PM25.4 °C24.1 °C92 %1012.9 hPa14.5 kmEast (90°)16.7 km/hMostly Cloudy
9:57 PM25 °C24 °C94 %1012.9 hPa9.7 kmEast (90°)16.7 km/hRainRain
10:06 PM25 °C24 °C94 %1012.9 hPa11.3 kmEast (90°)20.4 km/hRainLight Rain
10:07 PM25 °C24 °C94 %1012.9 hPa14.5 kmEast (80°)20.4 km/hRainLight Rain
10:08 PM25 °C24 °C94 %1012.9 hPa16.1 kmEast (90°)18.5 km/hMostly Cloudy
10:12 PM25 °C24 °C94 %1012.9 hPa16.1 kmEast (80°)22.2 km/hMostly Cloudy
10:16 PM25 °C24 °C94 %1012.9 hPa16.1 kmENE (70°)20.4 km/hMostly Cloudy
10:17 PM25 °C24 °C94 %1013.2 hPa16.1 kmENE (70°)20.4 km/hMostly Cloudy
10:20 PM25 °C24 °C94 %1013.2 hPa16.1 kmENE (70°)16.7 km/hScattered Clouds
10:31 PM25 °C24 °C94 %1012.9 hPa16.1 kmENE (70°)18.5 km/hRainLight Rain
10:45 PM25 °C24 °C94 %1012.9 hPa16.1 kmEast (80°)20.4 km/hScattered Clouds
10:55 PM25.3 °C24.1 °C93 %1012.9 hPa16.1 kmENE (70°)22.2 km/h0 mmMostly Cloudy
11:55 PM25.4 °C24.4 °C94 %1012.5 hPa16.1 kmEast (90°)18.5 km/hScattered Clouds
Hourly data recorded from PGUA, located 0 kilometers away from Inarajan, Guam







STORIES FROM OUR PARTNERS